FW3031 Weather Reports


time (UTC)temp
F
wind
direction
speed
knots
gust
knots
rain 1hr
in
rain 24hr
in
rain mn
in
humidity
%
barometer
mb
20260831045509 79 190 0.9 4.3 0.00 0.00 0.00 62 1016.1
20260831045008 79 190 0.0 4.3 0.00 0.00 0.00 62 1016.1
20260831044610 79 0 0.0 0.0 0.00 0.00 0.00 63 1014.4
20260831044513 79 190 0.0 0.0 0.00 0.00 0.00 63 1016.1
20260831044009 78 190 0.0 0.0 0.00 0.00 0.00 65 1016.1
20260831043511 78 190 0.0 1.7 0.00 0.00 0.00 65 1016.0
20260831043108 79 0 0.0 1.7 0.00 0.00 0.00 64 1014.1
20260831043007 79 190 0.0 1.7 0.00 0.00 0.00 65 1015.9
20260831042511 79 190 0.0 0.0 0.00 0.00 0.00 65 1015.9
20260831042008 79 190 0.0 1.7 0.00 0.00 0.00 65 1015.8
20260831041619 79 0 0.0 2.6 0.00 0.00 0.00 64 1014.0
20260831041510 79 190 0.0 1.7 0.00 0.00 0.00 64 1015.8
20260831041007 79 190 0.0 2.6 0.00 0.00 0.00 64 1015.7
20260831040508 79 190 0.9 2.6 0.00 0.00 0.00 63 1015.5
20260831040008 80 190 0.0 2.6 0.00 0.00 0.00 62 1015.5
20260831035507 80 190 0.0 0.0 0.00 0.00 0.00 62 1015.5
20260831035007 80 190 0.0 0.0 0.00 0.00 0.00 62 1015.3
20260831034612 80 0 0.0 0.0 0.00 0.00 0.00 62 1013.6
20260831034505 80 190 0.0 0.0 0.00 0.00 0.00 62 1015.3
20260831034006 80 190 0.0 0.0 0.00 0.00 0.00 61 1015.3
20260831033505 80 190 0.0 0.0 0.00 0.00 0.00 61 1015.3
20260831033112 81 0 0.0 0.0 0.00 0.00 0.00 60 1013.4
20260831033008 81 190 0.0 0.0 0.00 0.00 0.00 60 1015.2
20260831032506 81 190 0.0 0.0 0.00 0.00 0.00 60 1015.2
20260831032007 81 190 0.0 0.0 0.00 0.00 0.00 59 1015.1
20260831031621 81 0 0.0 0.0 0.00 0.00 0.00 59 1013.2
20260831031506 81 190 0.0 0.0 0.00 0.00 0.00 59 1014.9
20260831031004 81 190 0.0 0.0 0.00 0.00 0.00 59 1014.9
20260831030504 82 190 0.0 0.0 0.00 0.00 0.00 58 1014.8
20260831030103 82 0 0.0 2.6 0.00 0.00 0.00 57 1012.9
20260831030004 82 190 0.0 2.6 0.00 0.00 0.00 58 1014.7
20260831025504 82 190 0.0 2.6 0.00 0.00 0.00 58 1014.6
20260831025004 82 190 0.0 1.7 0.00 0.00 0.00 58 1014.5
20260831024611 82 190 0.0 2.6 0.00 0.00 0.00 57 1012.6
20260831024503 82 190 0.0 2.6 0.00 0.00 0.00 58 1014.4
20260831024004 82 190 0.0 2.6 0.00 0.00 0.00 57 1014.2
20260831023502 82 190 0.0 4.3 0.00 0.00 0.00 57 1014.2
20260831023105 82 0 1.7 4.3 0.00 0.00 0.00 56 1012.4
20260831023002 82 190 2.6 4.3 0.00 0.00 0.00 57 1014.1
20260831022503 82 190 1.7 4.3 0.00 0.00 0.00 57 1014.0
20260831022002 82 190 0.9 3.5 0.00 0.00 0.00 56 1014.0
20260831021609 83 190 1.7 3.5 0.00 0.00 0.00 55 1012.3
20260831021502 83 190 0.9 3.5 0.00 0.00 0.00 55 1014.0
20260831021003 83 190 0.0 2.6 0.00 0.00 0.00 54 1014.0
20260831020502 83 190 0.0 2.6 0.00 0.00 0.00 54 1013.8
20260831020113 83 0 0.9 3.5 0.00 0.00 0.00 53 1011.9
20260831020002 83 190 0.0 3.5 0.00 0.00 0.00 53 1013.6
20260831015503 83 190 0.9 3.5 0.00 0.00 0.00 54 1013.4
20260831015001 83 190 0.0 0.0 0.00 0.00 0.00 55 1013.2
20260831014602 83 0 0.0 0.0 0.00 0.00 0.00 54 1011.3
20260831014501 83 190 0.0 0.0 0.00 0.00 0.00 55 1013.1
20260831014100 83 190 0.0 0.0 0.00 0.00 0.00 55 1013.0
20260831014000 83 190 0.0 0.0 0.00 0.00 0.00 55 1013.0
20260831013600 83 190 0.0 0.9 0.00 0.00 0.00 54 1013.0
20260831013106 83 0 0.0 0.9 0.00 0.00 0.00 53 1010.9
20260831013101 83 190 0.0 0.9 0.00 0.00 0.00 54 1012.8
20260831012601 83 190 0.0 0.0 0.00 0.00 0.00 53 1012.6
20260831012100 83 190 0.0 0.0 0.00 0.00 0.00 52 1012.4
20260831011608 83 190 0.0 0.0 0.00 0.00 0.00 51 1012.3
20260831011601 83 0 0.0 0.0 0.00 0.00 0.00 50 1010.3
20260831011059 84 190 0.0 0.0 0.00 0.00 0.00 49 1012.1
20260831010600 84 190 0.0 0.0 0.00 0.00 0.00 48 1012.0
20260831010107 85 0 0.0 0.0 0.00 0.00 0.00 45 1010.1
20260831010001 85 190 0.0 0.0 0.00 0.00 0.00 45 1011.9
20260831005601 85 190 0.0 0.9 0.00 0.00 0.00 45 1011.8
20260831005058 85 190 0.0 3.5 0.00 0.00 0.00 44 1011.7
20260831004606 86 0 0.0 4.3 0.00 0.00 0.00 43 1009.8
20260831004558 86 190 0.0 3.5 0.00 0.00 0.00 44 1011.5
20260831004058 86 190 0.0 4.3 0.00 0.00 0.00 42 1011.4
20260831003559 86 190 0.9 6.1 0.00 0.00 0.00 41 1011.3
20260831003103 87 190 2.6 7.0 0.00 0.00 0.00 40 1009.5
20260831003059 87 190 2.6 7.0 0.00 0.00 0.00 41 1011.2
20260831002557 87 190 3.5 7.0 0.00 0.00 0.00 40 1011.1
20260831002059 88 190 1.7 5.2 0.00 0.00 0.00 40 1011.1
20260831001600 88 190 1.7 9.6 0.00 0.00 0.00 40 1009.3
20260831001557 88 190 0.9 9.6 0.00 0.00 0.00 40 1011.1
20260831001057 88 190 5.2 9.6 0.00 0.00 0.00 39 1011.0
20260831000557 88 190 1.7 7.8 0.00 0.00 0.00 40 1011.0
20260831000114 89 190 3.5 7.8 0.00 0.00 0.00 39 1009.2
20260830235556 89 190 3.5 7.8 0.00 0.00 0.00 39 1011.0
20260830235059 89 190 1.7 7.8 0.00 0.00 0.00 39 1010.8
20260830234604 89 190 2.6 7.8 0.00 0.00 0.00 38 1009.1
20260830234601 89 190 0.9 7.8 0.00 0.00 0.00 39 1010.8
20260830234055 90 190 3.5 7.8 0.00 0.00 0.00 38 1010.8
20260830233555 90 190 2.6 8.7 0.00 0.00 0.00 38 1010.7
20260830233103 90 190 3.5 8.7 0.00 0.00 0.00 36 1009.1
20260830233055 90 190 2.6 8.7 0.00 0.00 0.00 37 1010.8
20260830232554 91 190 2.6 6.1 0.00 0.00 0.00 36 1010.8
20260830232057 91 190 1.7 5.2 0.00 0.00 0.00 35 1010.6
20260830231610 91 190 1.7 6.1 0.00 0.00 0.00 35 1008.9
20260830231555 91 190 1.7 5.2 0.00 0.00 0.00 35 1010.6
20260830231054 91 190 2.6 6.1 0.00 0.00 0.00 34 1010.6
20260830230554 92 190 1.7 4.3 0.00 0.00 0.00 35 1010.5
20260830230107 92 0 0.9 7.0 0.00 0.00 0.00 34 1008.8
20260830230100 92 190 0.9 5.2 0.00 0.00 0.00 34 1010.5
20260830225554 92 190 0.9 7.0 0.00 0.00 0.00 34 1010.4
20260830225056 92 190 2.6 7.0 0.00 0.00 0.00 34 1010.4
20260830224601 92 190 0.0 5.2 0.00 0.00 0.00 33 1008.7
20260830224553 92 190 0.9 5.2 0.00 0.00 0.00 34 1010.3
20260830224053 92 190 1.7 5.2 0.00 0.00 0.00 34 1010.4
20260830223552 92 190 1.7 7.0 0.00 0.00 0.00 33 1010.5
20260830223102 93 190 3.5 7.0 0.00 0.00 0.00 34 1010.6
20260830222554 93 190 1.7 7.0 0.00 0.00 0.00 33 1010.6
20260830222051 93 190 2.6 6.1 0.00 0.00 0.00 34 1010.6
20260830221607 93 190 3.5 7.0 0.00 0.00 0.00 33 1010.7
20260830221559 93 190 2.6 8.7 0.00 0.00 0.00 33 1008.9
20260830221050 93 190 0.9 8.7 0.00 0.00 0.00 34 1010.8
20260830220551 93 190 2.6 8.7 0.00 0.00 0.00 33 1010.8
20260830220113 93 190 1.7 4.3 0.00 0.00 0.00 33 1009.2
20260830220050 93 190 0.9 4.3 0.00 0.00 0.00 33 1010.9
20260830215549 94 190 0.9 5.2 0.00 0.00 0.00 33 1011.0
20260830215049 94 190 0.9 5.2 0.00 0.00 0.00 32 1011.0
20260830214601 94 0 0.0 5.2 0.00 0.00 0.00 32 1009.3
20260830214547 94 190 0.0 4.3 0.00 0.00 0.00 32 1011.1
20260830214050 94 190 0.9 5.2 0.00 0.00 0.00 32 1011.2
20260830213545 94 190 1.7 5.2 0.00 0.00 0.00 32 1011.3
20260830213103 94 190 2.6 5.2 0.00 0.00 0.00 30 1009.6
20260830213046 94 190 2.6 5.2 0.00 0.00 0.00 31 1011.4
20260830212544 94 190 0.9 4.3 0.00 0.00 0.00 30 1011.5
20260830212043 94 190 1.7 4.3 0.00 0.00 0.00 31 1011.5
20260830211623 93 190 0.9 7.0 0.00 0.00 0.00 31 1009.7
20260830211542 93 190 0.9 7.0 0.00 0.00 0.00 32 1011.6
20260830211041 93 190 2.6 7.0 0.00 0.00 0.00 31 1011.8
20260830210541 93 190 1.7 7.0 0.00 0.00 0.00 32 1011.9
20260830210112 93 0 1.7 7.0 0.00 0.00 0.00 32 1010.0
20260830210039 93 190 1.7 7.0 0.00 0.00 0.00 32 1012.0
20260830205537 92 190 1.7 7.0 0.00 0.00 0.00 32 1012.1
20260830205035 92 190 1.7 5.2 0.00 0.00 0.00 33 1012.3
20260830204604 92 190 1.7 6.1 0.00 0.00 0.00 34 1010.3
20260830204541 92 190 1.7 6.1 0.00 0.00 0.00 35 1012.3
20260830204036 92 190 1.7 6.1 0.00 0.00 0.00 36 1012.4
20260830203532 92 190 2.6 6.1 0.00 0.00 0.00 35 1012.6
20260830203107 92 190 0.9 6.1 0.00 0.00 0.00 34 1010.6
20260830203036 91 190 0.9 6.1 0.00 0.00 0.00 35 1012.6
20260830202530 92 190 2.6 7.0 0.00 0.00 0.00 34 1012.7
20260830202030 92 190 1.7 7.0 0.00 0.00 0.00 34 1012.8
20260830201607 92 190 1.7 8.7 0.00 0.00 0.00 34 1010.8
20260830201527 91 190 0.9 7.0 0.00 0.00 0.00 35 1012.9
20260830201029 91 190 1.7 8.7 0.00 0.00 0.00 36 1013.0
20260830200526 90 190 1.7 8.7 0.00 0.00 0.00 36 1013.1
20260830200047 90 190 2.6 6.1 0.00 0.00 0.00 36 1013.2
20260830195525 90 190 0.0 7.8 0.00 0.00 0.00 36 1013.3
20260830195024 91 190 3.5 7.8 0.00 0.00 0.00 37 1013.5
20260830194609 91 190 1.7 5.2 0.00 0.00 0.00 36 1011.5
20260830194523 91 190 2.6 4.3 0.00 0.00 0.00 36 1013.6
20260830194023 91 190 0.9 5.2 0.00 0.00 0.00 36 1013.6
20260830193519 91 190 1.7 7.0 0.00 0.00 0.00 36 1013.8
20260830193106 90 0 2.6 7.0 0.00 0.00 0.00 37 1011.7
20260830193020 90 190 1.7 7.0 0.00 0.00 0.00 37 1014.0
20260830192517 90 190 1.7 5.2 0.00 0.00 0.00 37 1014.1
20260830192018 90 190 2.6 8.7 0.00 0.00 0.00 35 1014.3
20260830191602 90 190 3.5 8.7 0.00 0.00 0.00 36 1012.0
20260830191516 90 190 3.5 8.7 0.00 0.00 0.00 37 1014.3
20260830191017 91 190 1.7 3.5 0.00 0.00 0.00 35 1014.5
20260830190514 90 190 0.0 5.2 0.00 0.00 0.00 33 1014.6
20260830190122 90 190 2.6 5.2 0.00 0.00 0.00 32 1012.2
20260830190014 90 190 1.7 5.2 0.00 0.00 0.00 33 1014.8
20260830185514 91 190 0.0 4.3 0.00 0.00 0.00 33 1014.8
20260830185011 90 190 0.9 5.2 0.00 0.00 0.00 35 1014.8
20260830184613 89 190 1.7 5.2 0.00 0.00 0.00 33 1012.4
20260830184517 89 190 0.9 5.2 0.00 0.00 0.00 34 1014.9
20260830184008 90 190 0.9 7.0 0.00 0.00 0.00 33 1014.9
20260830183509 89 190 3.5 7.0 0.00 0.00 0.00 34 1015.0
20260830183105 90 190 3.5 7.0 0.00 0.00 0.00 33 1012.6
20260830183007 90 190 2.6 7.0 0.00 0.00 0.00 34 1015.0
20260830182509 90 190 2.6 6.1 0.00 0.00 0.00 34 1015.2
20260830182006 89 190 0.9 6.1 0.00 0.00 0.00 35 1015.3
20260830181607 89 190 2.6 6.1 0.00 0.00 0.00 34 1012.9
20260830181505 89 190 3.5 6.1 0.00 0.00 0.00 34 1015.4
20260830181004 88 190 0.9 6.1 0.00 0.00 0.00 35 1015.3
20260830180503 88 190 0.0 4.3 0.00 0.00 0.00 35 1015.5
20260830180116 88 0 1.7 6.1 0.00 0.00 0.00 36 1013.1
20260830180001 88 190 0.9 6.1 0.00 0.00 0.00 35 1015.5
20260830175601 87 190 1.7 6.1 0.00 0.00 0.00 36 1015.6
20260830175100 87 190 1.7 7.0 0.00 0.00 0.00 36 1015.7
20260830174610 87 0 3.5 9.6 0.00 0.00 0.00 35 1013.3
20260830174602 87 190 0.9 7.0 0.00 0.00 0.00 36 1015.7
20260830174058 88 190 2.6 9.6 0.00 0.00 0.00 36 1015.7
20260830173601 87 190 1.7 7.0 0.00 0.00 0.00 37 1015.7
20260830173128 87 190 2.6 7.0 0.00 0.00 0.00 36 1013.5
20260830173106 87 190 1.7 7.0 0.00 0.00 0.00 36 1016.0
20260830172556 86 190 0.9 6.1 0.00 0.00 0.00 36 1016.0
20260830172055 87 190 1.7 6.1 0.00 0.00 0.00 37 1016.1
20260830171613 86 190 1.7 5.2 0.00 0.00 0.00 37 1013.7
20260830171554 86 190 1.7 5.2 0.00 0.00 0.00 37 1016.1
20260830171053 86 190 1.7 5.2 0.00 0.00 0.00 38 1016.3
20260830170551 86 190 0.0 5.2 0.00 0.00 0.00 39 1016.4
20260830170058 85 190 0.9 6.1 0.00 0.00 0.00 39 1014.2
20260830170050 85 190 0.0 5.2 0.00 0.00 0.00 39 1016.5
20260830165649 85 190 1.7 6.1 0.00 0.00 0.00 40 1016.6
20260830165050 85 190 0.0 5.2 0.00 0.00 0.00 43 1016.7
20260830164604 84 0 0.9 6.1 0.00 0.00 0.00 43 1014.6
20260830164558 84 190 1.7 6.1 0.00 0.00 0.00 44 1016.9
20260830164045 84 190 2.6 6.1 0.00 0.00 0.00 45 1017.0
20260830163544 83 190 0.0 2.6 0.00 0.00 0.00 45 1017.0
20260830163110 83 190 0.0 4.3 0.00 0.00 0.00 48 1014.7
20260830163058 83 190 0.0 4.3 0.00 0.00 0.00 48 1017.1
20260830162542 82 190 0.9 4.3 0.00 0.00 0.00 48 1017.2
20260830162040 82 190 0.0 2.6 0.00 0.00 0.00 52 1017.3
20260830161610 81 0 0.0 2.6 0.00 0.00 0.00 52 1015.0
20260830161539 81 190 0.0 2.6 0.00 0.00 0.00 52 1017.3
20260830161037 80 190 0.0 2.6 0.00 0.00 0.00 57 1017.4
20260830160537 80 190 0.0 3.5 0.00 0.00 0.00 64 1017.5
20260830160108 80 190 0.0 1.7 0.00 0.00 0.00 65 1015.2
20260830160035 80 190 0.9 3.5 0.00 0.00 0.00 65 1017.6
20260830155535 79 190 0.0 2.6 0.00 0.00 0.00 66 1017.7
20260830155034 79 190 0.0 2.6 0.00 0.00 0.00 67 1017.8
20260830154600 78 190 0.0 2.6 0.00 0.00 0.00 67 1015.3
20260830154535 78 190 0.0 1.7 0.00 0.00 0.00 68 1017.8
20260830154029 78 190 0.0 2.6 0.00 0.00 0.00 70 1017.9
20260830153530 78 190 0.0 2.6 0.00 0.00 0.00 70 1017.9
20260830153109 78 0 0.0 0.0 0.00 0.00 0.00 70 1015.4
20260830153029 77 190 0.0 0.0 0.00 0.00 0.00 71 1018.0
20260830152526 77 190 0.0 0.0 0.00 0.00 0.00 72 1018.1
20260830152025 76 190 0.0 0.0 0.00 0.00 0.00 73 1018.0
20260830151610 76 0 0.0 0.0 0.00 0.00 0.00 74 1015.5
20260830151525 76 190 0.0 0.0 0.00 0.00 0.00 73 1018.1
20260830151024 76 190 0.0 0.9 0.00 0.00 0.00 74 1018.2
20260830150523 75 190 0.0 1.7 0.00 0.00 0.00 75 1018.2
20260830150104 75 0 0.0 0.0 0.00 0.00 0.00 75 1015.5
20260830150034 75 190 0.0 0.9 0.00 0.00 0.00 76 1018.2
20260830145520 75 190 0.0 0.0 0.00 0.00 0.00 77 1018.2
20260830145019 74 190 0.0 0.0 0.00 0.00 0.00 75 1018.1
20260830144604 74 0 0.0 0.0 0.00 0.00 0.00 79 1015.4
20260830144519 74 190 0.0 0.0 0.00 0.00 0.00 79 1018.0
20260830144016 73 190 0.0 0.0 0.00 0.00 0.00 81 1018.1
20260830143519 72 190 0.0 0.0 0.00 0.00 0.00 81 1018.2
20260830143107 72 0 0.0 0.0 0.00 0.00 0.00 81 1015.5
20260830143014 72 190 0.0 0.0 0.00 0.00 0.00 81 1018.1
20260830142518 71 190 0.0 0.0 0.00 0.00 0.00 81 1018.1
20260830142013 71 190 0.0 0.0 0.00 0.00 0.00 83 1018.1
20260830141603 70 0 0.0 0.9 0.00 0.00 0.00 82 1015.4
20260830141512 70 190 0.0 0.9 0.00 0.00 0.00 82 1018.0
20260830141011 70 190 0.0 0.9 0.00 0.00 0.00 82 1017.9
20260830140515 70 190 0.0 0.0 0.00 0.00 0.00 83 1017.9
20260830140108 69 0 0.0 0.0 0.00 0.00 0.00 83 1015.2
20260830140015 69 190 0.0 0.0 0.00 0.00 0.00 84 1017.9
20260830135514 69 190 0.0 0.0 0.00 0.00 0.00 85 1017.9
20260830135013 68 190 0.0 0.0 0.00 0.00 0.00 86 1017.8
20260830134608 68 0 0.0 0.0 0.00 0.00 0.00 86 1015.2
20260830134521 68 190 0.0 0.0 0.00 0.00 0.00 87 1017.9
20260830134010 67 190 0.0 0.0 0.00 0.00 0.00 86 1017.8
20260830133509 66 190 0.0 0.0 0.00 0.00 0.00 86 1017.8
20260830133119 66 0 0.0 0.0 0.00 0.00 0.00 87 1015.1
20260830133018 66 190 0.0 0.0 0.00 0.00 0.00 87 1017.7
20260830132508 66 190 0.0 0.0 0.00 0.00 0.00 88 1017.6
20260830132008 65 190 0.0 0.0 0.00 0.00 0.00 88 1017.6
20260830131604 65 0 0.0 0.0 0.00 0.00 0.00 87 1014.9
20260830131508 65 190 0.0 0.0 0.00 0.00 0.00 88 1017.6
20260830131008 65 190 0.0 0.0 0.00 0.00 0.00 88 1017.5
20260830130506 65 190 0.0 0.0 0.00 0.00 0.00 88 1017.5
20260830130104 65 0 0.0 0.0 0.00 0.00 0.00 87 1014.8
20260830130006 65 190 0.0 0.0 0.00 0.00 0.00 87 1017.5
20260830125506 65 190 0.0 0.0 0.00 0.01 0.00 87 1017.5
20260830125005 65 190 0.0 0.0 0.00 0.01 0.00 86 1017.5
20260830124608 65 0 0.0 0.0 0.00 0.00 0.00 86 1014.7
20260830124503 65 190 0.0 0.0 0.00 0.01 0.00 86 1017.5
20260830124004 65 190 0.0 0.0 0.00 0.01 0.00 87 1017.5
20260830123503 65 190 0.0 0.9 0.00 0.01 0.00 87 1017.4
20260830123104 65 190 0.0 0.0 0.00 0.00 0.00 86 1014.8
20260830123003 65 190 0.0 0.0 0.00 0.01 0.00 86 1017.4
20260830122502 65 190 0.0 0.0 0.00 0.01 0.00 86 1017.5
20260830122002 65 190 0.0 0.0 0.00 0.01 0.00 87 1017.4
20260830121608 66 0 0.0 0.0 0.00 0.00 0.00 87 1014.7
20260830121501 66 190 0.0 0.0 0.00 0.01 0.00 87 1017.4
20260830121002 65 190 0.0 0.0 0.00 0.01 0.00 87 1017.4
20260830120600 65 190 0.0 0.0 0.00 0.01 0.00 86 1017.3
20260830120106 66 0 0.0 0.0 0.00 0.00 0.00 86 1014.6
20260830115559 66 190 0.0 0.0 0.00 0.01 0.00 87 1017.2
20260830115058 66 190 0.0 0.0 0.00 0.01 0.00 87 1017.1
20260830114614 66 0 0.0 0.0 0.00 0.00 0.00 86 1014.4
20260830114604 66 190 0.0 0.0 0.00 0.01 0.00 87 1017.1
20260830114056 66 190 0.0 0.0 0.00 0.01 0.00 86 1017.0
20260830113557 66 190 0.0 0.0 0.00 0.01 0.00 85 1016.8
20260830113103 66 0 0.0 0.0 0.00 0.00 0.00 85 1014.1
20260830113057 66 190 0.0 0.0 0.00 0.01 0.00 85 1016.7
20260830112556 66 190 0.0 0.0 0.00 0.01 0.00 84 1016.7
20260830112056 66 190 0.0 0.0 0.00 0.01 0.00 86 1016.7
20260830111607 66 0 0.0 0.0 0.00 0.00 0.00 85 1014.0
20260830111556 66 190 0.0 0.0 0.00 0.01 0.00 86 1016.6
20260830111056 66 190 0.0 0.0 0.00 0.01 0.00 86 1016.6
20260830110555 66 190 0.0 0.0 0.00 0.01 0.00 85 1016.5
20260830110108 66 0 0.0 0.0 0.00 0.00 0.00 86 1013.9
20260830110056 66 190 0.0 0.0 0.00 0.01 0.00 86 1016.5
20260830105556 66 190 0.0 0.0 0.00 0.01 0.00 86 1016.5
20260830105053 66 190 0.0 0.0 0.00 0.01 0.00 85 1016.5
20260830104610 66 0 0.0 0.0 0.00 0.00 0.00 85 1013.9
20260830104552 66 190 0.0 0.0 0.00 0.01 0.00 85 1016.5
20260830104052 66 190 0.0 0.0 0.00 0.01 0.00 85 1016.5
20260830103555 66 190 0.0 0.0 0.00 0.01 0.00 84 1016.5
20260830103107 67 0 0.0 0.0 0.00 0.00 0.00 84 1014.0
20260830103051 67 190 0.0 0.0 0.00 0.01 0.00 84 1016.5
20260830102554 67 190 0.0 0.0 0.00 0.01 0.00 84 1016.5
20260830102048 67 190 0.0 0.0 0.00 0.01 0.00 84 1016.5
20260830101603 67 0 0.0 0.0 0.00 0.00 0.00 84 1014.1
20260830101548 67 190 0.0 0.0 0.00 0.01 0.00 84 1016.5
20260830101048 67 190 0.0 0.0 0.00 0.01 0.00 85 1016.5
20260830100550 67 190 0.0 0.0 0.00 0.01 0.00 85 1016.4
20260830100111 67 190 0.0 0.0 0.00 0.01 0.00 85 1016.5
20260830100109 67 0 0.0 0.0 0.00 0.00 0.00 85 1014.1
20260830095548 67 190 0.0 0.0 0.00 0.02 0.00 85 1016.4
20260830095047 67 190 0.0 0.0 0.00 0.02 0.00 85 1016.4
20260830094603 67 0 0.0 0.0 0.00 0.01 0.00 83 1014.1
20260830094546 67 190 0.0 0.0 0.00 0.02 0.00 83 1016.5
20260830094044 68 190 0.0 0.0 0.00 0.02 0.00 85 1016.4
20260830093544 68 190 0.0 0.0 0.00 0.02 0.00 86 1016.5
20260830093102 68 0 0.0 0.0 0.00 0.01 0.00 86 1014.3
20260830093043 68 190 0.0 0.0 0.00 0.02 0.00 86 1016.5
20260830092543 68 190 0.0 0.0 0.00 0.02 0.00 86 1016.5
20260830092043 68 190 0.0 0.0 0.00 0.02 0.00 87 1016.6
20260830091606 68 0 0.0 0.0 0.00 0.01 0.00 86 1014.3
20260830091543 68 190 0.0 0.0 0.00 0.02 0.00 87 1016.6
20260830091043 68 190 0.0 0.0 0.00 0.02 0.00 87 1016.6
20260830090543 68 190 0.0 0.0 0.00 0.02 0.00 86 1016.6
20260830090104 68 0 0.0 0.0 0.00 0.01 0.00 85 1014.3
20260830090042 68 190 0.0 0.0 0.00 0.02 0.00 86 1016.6
20260830085541 68 190 0.0 0.0 0.00 0.02 0.00 85 1016.6
20260830085041 68 190 0.0 0.0 0.00 0.02 0.00 84 1016.6
20260830084608 69 0 0.0 0.0 0.00 0.01 0.00 83 1014.4
20260830084539 68 190 0.0 0.0 0.00 0.02 0.00 83 1016.7
20260830084039 69 190 0.0 0.0 0.00 0.02 0.00 83 1016.7
20260830083538 69 190 0.0 0.0 0.00 0.02 0.00 82 1016.8
20260830083107 69 0 0.0 0.0 0.00 0.01 0.00 82 1014.4
20260830083038 69 190 0.0 0.0 0.00 0.02 0.00 83 1016.7
20260830082539 69 190 0.0 0.0 0.00 0.02 0.00 82 1016.7
20260830082036 69 190 0.0 0.0 0.00 0.02 0.00 82 1016.8
20260830081605 69 0 0.0 0.9 0.00 0.01 0.00 82 1014.5
20260830081536 69 190 0.0 0.0 0.00 0.02 0.00 82 1016.8
20260830081035 69 190 0.0 0.9 0.00 0.02 0.00 82 1016.8
20260830080535 69 190 0.0 0.9 0.00 0.02 0.00 82 1016.8
20260830080034 70 190 0.0 0.0 0.00 0.02 0.00 84 1016.8
20260830075533 70 190 0.0 0.0 0.00 0.05 0.00 85 1016.8
20260830075034 70 190 0.0 0.0 0.00 0.05 0.00 85 1016.8
20260830074605 70 0 0.0 0.0 0.00 0.04 0.00 84 1014.7
20260830074533 70 190 0.0 0.0 0.00 0.05 0.00 85 1016.8
20260830074033 70 190 0.0 0.0 0.00 0.05 0.00 84 1016.9
20260830073530 70 190 0.0 0.0 0.00 0.05 0.00 84 1016.9
20260830073103 71 0 0.0 0.0 0.00 0.04 0.00 82 1014.8
20260830073030 71 190 0.0 0.0 0.00 0.05 0.00 83 1016.9
20260830072533 70 190 0.0 0.0 0.00 0.05 0.00 83 1016.9
20260830072029 70 190 0.0 0.0 0.00 0.05 0.00 82 1016.9
20260830071604 70 0 0.0 0.0 0.00 0.04 0.00 81 1014.8
20260830071536 70 190 0.0 0.0 0.00 0.05 0.00 82 1016.9
20260830071028 70 190 0.0 0.0 0.00 0.05 0.00 82 1017.0
20260830070526 70 190 0.0 0.0 0.00 0.05 0.00 83 1017.0
20260830070105 71 0 0.0 0.0 0.00 0.04 0.00 83 1015.0
20260830070025 71 190 0.0 0.0 0.00 0.05 0.00 83 1017.0
20260830065525 71 190 0.0 0.0 0.00 0.05 0.00 85 1017.1
20260830065025 71 190 0.0 0.0 0.00 0.05 0.00 86 1017.1
20260830064610 71 0 0.0 0.0 0.00 0.04 0.00 84 1015.0
20260830064523 71 190 0.0 0.0 0.00 0.05 0.00 85 1017.1
20260830064022 71 190 0.0 0.0 0.00 0.05 0.00 85 1017.1
20260830063522 71 190 0.0 0.0 0.00 0.05 0.00 85 1017.2
20260830063104 72 0 0.0 0.0 0.00 0.04 0.00 84 1015.2
20260830063022 71 190 0.0 0.0 0.00 0.05 0.00 85 1017.2
20260830062520 72 190 0.0 0.0 0.00 0.05 0.00 85 1017.1
20260830062019 72 190 0.0 0.0 0.00 0.05 0.00 85 1017.2
20260830061602 72 0 0.0 0.0 0.00 0.04 0.00 85 1015.2
20260830061519 72 190 0.0 0.0 0.00 0.05 0.00 85 1017.2
20260830061020 72 190 0.0 0.0 0.00 0.05 0.00 85 1017.2
20260830060518 72 190 0.0 0.0 0.00 0.05 0.00 85 1017.2
20260830060116 72 0 0.0 0.0 0.00 0.04 0.00 84 1015.3
20260830060018 72 190 0.0 0.0 0.00 0.05 0.00 84 1017.2
20260830055518 72 190 0.0 0.0 0.00 0.12 0.05 84 1017.2
20260830055018 72 190 0.0 0.0 0.00 0.12 0.05 83 1017.2
20260830054613 72 0 0.0 0.0 0.00 0.11 0.04 83 1015.2
20260830054517 72 190 0.0 0.0 0.00 0.12 0.05 83 1017.1
20260830054016 73 190 0.0 0.0 0.00 0.12 0.05 83 1017.1
20260830053516 73 190 0.0 0.0 0.00 0.12 0.05 84 1017.1
20260830053105 73 0 0.0 0.0 0.00 0.11 0.04 83 1015.2
20260830053016 73 190 0.0 0.0 0.00 0.12 0.05 84 1017.0
20260830052516 73 190 0.0 0.0 0.00 0.12 0.05 84 1016.9
20260830052016 73 190 0.0 0.0 0.00 0.12 0.05 84 1017.0
20260830051603 73 0 0.0 0.9 0.00 0.11 0.04 83 1015.1
20260830051516 73 190 0.0 0.0 0.00 0.12 0.05 83 1016.9
20260830051018 73 190 0.0 0.9 0.00 0.12 0.05 83 1016.9
20260830050519 74 190 0.0 0.9 0.00 0.12 0.05 81 1016.8
20260830050112 74 0 0.0 0.0 0.00 0.11 0.04 80 1015.1
20260830050016 74 190 0.0 0.0 0.00 0.12 0.05 81 1016.8